Regional Weather Roundup
Issued by NWS

Home | Current Version | Previous Version | Text Only | Print | Product List | Glossary On
Versions: 1 2 3 4 5 6 7 8 9 10 11 12 13 14 15 16 17 18 19 20 21 22 23 24 25 26 27 28 29 30 31 32 33 34 35 36 37 38 39 40 41 42 43 44 45 46 47 48 49 50
000
ASCA42 TJSJ 011710
RWRPR
PUERTO RICO/U.S. VIRGIN ISLANDS HOURLY WEATHER ROUNDUP
NATIONAL WEATHER SERVICE SAN JUAN PR
100 PM AST FRI AUG 01 2014

PRZ001-004-011800-
PUERTO RICO

CITY           SKY/WX    TMP DP  RH WIND       PRES   REMARKS
SAN JUAN LMM   MOSUNNY   90  77  66 NE20G26   29.97F HX 102
MAYAGUEZ       PTSUNNY   90  72  55 W8        29.96F HX  96
AGUADILLA      SUNNY     86  75  70 E13G21    29.99S HX  95
CEIBA          SUNNY     88  73  62 E17       30.01F HX  96
$$

PRZ006-007-011800-
U.S. VIRGIN ISLANDS

CITY           SKY/WX    TMP DP  RH WIND       PRES   REMARKS
CHARLOTTE AMA  SUNNY     88  75  66 SE16      29.98F HX  97
CHRISTIANSTED  MOSUNNY   90  73  58 E15G23    29.99F HX  98
$$

HOURLY WEATHER ROUNDUP FOR THE NEWS MEDIA

CITY           SKY/WX    TMP DP  RH WIND       PRES   REMARKS
ORLANDO        SUNNY     89  71  55 W7        30.00S HX  95
NEW YORK       PTSUNNY   82  68  62 S8        30.20F
NEWARK         PTSUNNY   84  65  52 SE9G16    30.18F
CHICAGO        MOSUNNY   81  54  39 VRB6      30.08F
HARTFORD       PTSUNNY   79  68  69 S13       30.23S
BOSTON         PTSUNNY   75  66  73 E15       30.21F
DALLAS         CLOUDY    75  66  73 N7        30.07R
PHILADELPHIA   CLOUDY    81  69  67 SW6       30.19F
LOS ANGELES    MOSUNNY   75  63  66 W8        29.93F
WASHINGTON DC  LGT RAIN  74  64  71 SW8       30.21R


USA.gov is the U.S. government's official web portal to all federal, state and local government web resources and services.